Regional Weather Roundup
Issued by NWS

Home | Current Version | Previous Version | Text Only | Print | Product List | Glossary On
Versions: 1 2 3 4 5 6 7 8 9 10 11 12 13 14 15 16 17 18 19 20 21 22 23 24 25 26 27 28 29 30 31 32 33 34 35 36 37 38 39 40 41 42 43 44 45 46 47 48 49 50
169
ASUS43 KOAX 220102
RWRNE

WEATHER ROUNDUP FOR NEBRASKA
NATIONAL WEATHER SERVICE OMAHA NE
700 PM CST TUE FEB 21 2017

NOTES: SATELLITE DATA IS BEING USED TO AUGMENT CLOUD COVER ABOVE
       12000 FEET.
       "FAIR" INDICATES FEW OR NO CLOUDS BELOW 12,000 FEET WITH NO
       SIGNIFICANT WEATHER AND/OR OBSTRUCTIONS TO VISIBILITY.

  * THESE STATIONS DO NOT REPORT WEATHER SUCH AS RAIN...SNOW OR FOG.

NEZ001>004-019>022-054>056-220200-
NEBRASKA PANHANDLE

CITY           SKY/WX    TMP DP  RH WIND       PRES   REMARKS
SCOTTSBLUFF    CLEAR     64  20  18 W20G29    29.83S
ALLIANCE       CLOUDY    57  20  23 W13       29.81S
CHADRON        CLEAR     61  25  25 W18       29.74F
KIMBALL        CLEAR     54  22  28 SW13      29.90F
SIDNEY         CLEAR     60  17  18 W15       29.87F
$$

NEZ057>060-069>072-079>082-220200-
SOUTHWEST NEBRASKA

CITY           SKY/WX    TMP DP  RH WIND       PRES   REMARKS
NORTH PLATTE   CLEAR     60  25  26 W8        29.81S
IMPERIAL       CLOUDY    59  18  20 W8        29.85S
LEXINGTON      CLEAR     60  28  29 S8        29.81F
MCCOOK         CLEAR     63  25  23 SW6       29.83F
OGALLALA       CLOUDY    56  20  24 NW8       29.84S
$$

NEZ005>010-023>029-035>040-094-220200-
NORTH CENTRAL NEBRASKA

CITY           SKY/WX    TMP DP  RH WIND       PRES   REMARKS
VALENTINE      CLEAR     62  29  28 W13       29.72S
AINSWORTH      CLEAR     55  34  45 S7        29.73S
BROKEN BOW     CLEAR     60  30  32 CALM      29.78S
O`NEILL        CLEAR     60  34  37 SW6       29.73S
ORD            CLEAR     57  31  37 SW8       29.75S
THEDFORD       CLEAR     62  28  27 SW8       29.78S
$$

NEZ041-046>049-061>064-073>077-083>087-220200-
SOUTH CENTRAL NEBRASKA

CITY           SKY/WX    TMP DP  RH WIND       PRES   REMARKS
GRAND ISLAND   CLEAR     62  33  33 SW9       29.80S
AURORA         CLEAR     62  31  31 SW8       29.80S
HASTINGS       CLEAR     66  29  24 S6        29.82S
HEBRON         CLEAR     59  26  28 S9        29.83S
HOLDREGE       CLEAR     63  24  22 SW8       29.82F
KEARNEY *      CLEAR     63  27  25 S7        29.81F
YORK           CLEAR     59  30  33 S8        29.80S
$$

NEZ011>018-030>034-042>045-220200-
NORTHEAST NEBRASKA

CITY           SKY/WX    TMP DP  RH WIND       PRES   REMARKS
NORFOLK        CLEAR     61  34  36 S14       29.73F
ALBION         CLEAR     59  34  39 SE7       29.76S
BLAIR          CLEAR     61  38  41 S10       29.80S
FREMONT        CLEAR     64  32  30 S9        29.79S
TEKAMAH        CLEAR     53  39  59 S12       29.77S
WAYNE          CLEAR     59  35  41 SW9       29.73S
$$

NEZ050>053-065>068-078-088>093-220200-
SOUTHEAST NEBRASKA

CITY           SKY/WX    TMP DP  RH WIND       PRES   REMARKS
LINCOLN        CLEAR     54  29  38 S9        29.81F
OMAHA EPPLEY   PTCLDY    62  38  40 S14       29.81S
BEATRICE       CLEAR     62  32  32 S8        29.85R
FALLS CITY     CLEAR     60  35  39 S6        29.86F
NEBRASKA CITY  CLEAR     55  33  42 S9        29.85S
PLATTSMOUTH    CLEAR     61  30  31 S9        29.84R
$$

NEZ044-045-051>053-067-220200-
OMAHA AREA

CITY           SKY/WX    TMP DP  RH WIND       PRES   REMARKS
OMAHA EPPLEY   PTCLDY    62  38  40 S14       29.81S
BLAIR          CLEAR     61  38  41 S10       29.80S
FREMONT        CLEAR     64  32  30 S9        29.79S
MILLARD        CLEAR     61  41  47 SE8       29.81S
OFFUTT AFB     CLEAR     55  39  53 E7        29.82R
PLATTSMOUTH    CLEAR     61  30  31 S9        29.84R
WAHOO          FAIR      56  32  39 S10       29.79S
$$




USA.gov is the U.S. government's official web portal to all federal, state and local government web resources and services.